{"data":{"norad_id":64391,"epoch":"2026-05-24T22:49:08.294880Z","epoch_age_seconds":79216,"freshness":"FRESH","line1":"1 64391U 25127X   26144.95079045  .00015918  00000+0  58638-3 0  9992","line2":"2 64391  42.9965 108.7952 0001274 170.4115 189.6761 15.27599059 54138","mean_motion":15.27599059,"eccentricity":0.0001274,"inclination_deg":42.9965,"raan_deg":108.7952,"arg_perigee_deg":170.4115,"mean_anomaly_deg":189.6761,"bstar":0.00058638,"rev_number":5413,"period_min":94.265572600094,"perigee_km":482.11791929251,"apogee_km":483.86613496862,"semimajor_km":6861.1290271306,"source":"CELESTRAK","updated_at":"2026-05-25T13:38:20.415695Z"}}